Location: Grossmotten
(48.5500°N, 15.3833°E)
Time: 23:47:59
(UTC+00:00)

Cosmos 1980 Rocket - Pass Details

Date: 15 November 2019
Orbit: 828 x 851 km, 71.0° (Epoch: 12 December)

Event Time Altitude Azimuth Distance (km) Brightness Sun altitude
Exits shadow 02:06:24 27° 72° (ENE) 1,589 4.0 -39.3°
Drops below altitude 10° 02:09:58 10° 108° (ESE) 2,476 5.1 -38.7°
Sets 02:12:43 0° 119° (ESE) 3,405 5.9 -38.3°
